Regional Weather Roundup
Issued by NWS

Home | Current Version | Previous Version | Text Only | Print | Product List | Glossary On
Versions: 1 2 3 4 5 6 7 8 9 10 11 12 13 14 15 16 17 18 19 20 21 22 23 24 25 26 27 28 29 30 31 32 33 34 35 36 37 38 39 40 41 42 43 44 45 46 47 48 49 50
000
ASUS43 KFSD 280210
RWRSD

WEATHER ROUNDUP FOR SOUTH DAKOTA
NATIONAL WEATHER SERVICE SIOUX FALLS SD
800 PM CST SAT DEC 27 2014

NOTE: "FAIR" INDICATES FEW OR NO CLOUDS BELOW 12,000 FEET WITH NO
SIGNIFICANT WEATHER AND/OR OBSTRUCTIONS TO VISIBILITY.


SDZ001>005-009-010-012>017-280300-
NORTHWEST AND NORTH CENTRAL SOUTH DAKOTA

CITY           SKY/WX    TMP DP  RH WIND       PRES   REMARKS
BUFFALO          N/A     23  16  74 W10       29.93F WCI  12
FAITH            N/A     19  11  70 W7        30.01F WCI  10
MOBRIDGE       PTCLDY    19  14  81 CALM      30.01R
$$

SDZ012>016-024>037-041>051-057-063-072>074-280300-
SOUTHWEST AND SOUTH CENTRAL SOUTH DAKOTA

CITY           SKY/WX    TMP DP  RH WIND       PRES   REMARKS
RAPID CTY ARPT MOCLDY    15   8  73 W3        30.03S
PIERRE         PTCLDY    20  14  77 SW10      30.07S WCI   9
CUSTER         CLEAR     11   6  81 SW5       29.95R WCI   3
ELLSWORTH AFB  PTCLDY    18   9  68 W5        30.03  WCI  11
PHILIP         PTCLDY    16  12  84 W9        30.08R WCI   4
PINE RIDGE     PTCLDY    11   5  77 W3        30.06S
SPEARFISH      FAIR      21  10  63 W8        30.00F WCI  12
WINNER         FAIR      19  11  70 SW12      30.09F WCI   7
$$

SDZ004>011-016>023-039-040-280300-
NORTHEAST SOUTH DAKOTA

CITY           SKY/WX    TMP DP  RH WIND       PRES   REMARKS
ABERDEEN       CLOUDY    20  16  84 S9        30.06F WCI   9
WATERTOWN      CLEAR      7   5  91 S5        30.06F WCI  -2
SISSETON         N/A     22  16  78 W12       30.05S WCI  10
$$

SDZ017-020-022-023-036>040-048>070-280300-
SOUTHEAST SOUTH DAKOTA

CITY           SKY/WX    TMP DP  RH WIND       PRES   REMARKS
SIOUX FALLS    PTCLDY    11   7  84 SW3       30.15S
HURON          CLEAR     13   9  84 S8        30.11S WCI   2
CHAMBERLAIN    CLEAR     12   8  83 SW5       30.10S WCI   5
MITCHELL       CLEAR     14  10  84 SW8       30.14F WCI   3
YANKTON        CLEAR     16  12  86 SW5       30.18S WCI   9
$$

ABBREVIATIONS USED IN REMARKS
   TC - TEMPERATURE IN CELSIUS
  WCI - WIND CHILL INDEX
   HX - HEAT INDEX
  VSB - VISIBILITY



USA.gov is the U.S. government's official web portal to all federal, state and local government web resources and services.